| time (UTC) | temp C | wind direction | speed KPH | gust KPH | rain 1hr cm | rain 24hr cm | rain mn cm | humidity % | barometer mb |
| 20260505095222 | 29 | 163 | 0.0 | 0.0 | 0.00 | 0.00 | 0.00 | 77 | 1008.0 |
| 20260505094717 | 29 | 168 | 0.0 | 0.0 | 0.00 | 0.00 | 0.00 | 76 | 1008.0 |
| 20260505094214 | 30 | 169 | 0.0 | 0.0 | 0.00 | 0.00 | 0.00 | 73 | 1008.0 |
| 20260505093710 | 30 | 39 | 0.0 | 0.0 | 0.00 | 0.00 | 0.00 | 72 | 1008.1 |
| 20260505093208 | 30 | 37 | 0.0 | 0.0 | 0.00 | 0.00 | 0.00 | 70 | 1008.1 |
| 20260505092704 | 30 | 37 | 0.0 | 3.2 | 0.00 | 0.00 | 0.00 | 69 | 1008.1 |
| 20260505092203 | 30 | 39 | 1.6 | 1.6 | 0.00 | 0.00 | 0.00 | 68 | 1008.0 |
| 20260505091700 | 30 | 109 | 0.0 | 1.6 | 0.00 | 0.00 | 0.00 | 68 | 1008.0 |
| 20260505091158 | 30 | 284 | 0.0 | 1.6 | 0.00 | 0.00 | 0.00 | 68 | 1007.8 |
| 20260505090655 | 31 | 5 | 1.6 | 4.8 | 0.00 | 0.00 | 0.00 | 67 | 1007.9 |
| 20260505090153 | 31 | 53 | 1.6 | 1.6 | 0.00 | 0.00 | 0.00 | 66 | 1007.7 |
| 20260505085650 | 31 | 75 | 0.0 | 1.6 | 0.00 | 0.00 | 0.00 | 65 | 1007.8 |
| 20260505085148 | 31 | 22 | 0.0 | 0.0 | 0.00 | 0.00 | 0.00 | 66 | 1007.8 |
| 20260505084646 | 32 | 42 | 1.6 | 1.6 | 0.00 | 0.00 | 0.00 | 64 | 1007.7 |
| 20260505084144 | 32 | 39 | 1.6 | 3.2 | 0.00 | 0.00 | 0.00 | 62 | 1007.7 |
| 20260505083641 | 32 | 146 | 0.0 | 1.6 | 0.00 | 0.00 | 0.00 | 62 | 1007.5 |
| 20260505083137 | 32 | 152 | 0.0 | 0.0 | 0.00 | 0.00 | 0.00 | 62 | 1007.6 |
| 20260505082633 | 33 | 321 | 4.8 | 11.3 | 0.00 | 0.00 | 0.00 | 61 | 1007.4 |
| 20260505082131 | 33 | 148 | 0.0 | 0.0 | 0.00 | 0.00 | 0.00 | 57 | 1007.5 |
| 20260505081626 | 33 | 52 | 1.6 | 3.2 | 0.00 | 0.00 | 0.00 | 58 | 1007.4 |
| 20260505081125 | 33 | 45 | 0.0 | 4.8 | 0.00 | 0.00 | 0.00 | 57 | 1007.4 |
| 20260505080620 | 33 | 123 | 0.0 | 0.0 | 0.00 | 0.00 | 0.00 | 57 | 1007.4 |
| 20260505080117 | 34 | 228 | 0.0 | 1.6 | 0.00 | 0.00 | 0.00 | 58 | 1007.3 |
| 20260505075613 | 33 | 150 | 0.0 | 1.6 | 0.00 | 0.00 | 0.00 | 55 | 1007.3 |
| 20260505075110 | 33 | 18 | 0.0 | 3.2 | 0.00 | 0.00 | 0.00 | 57 | 1007.4 |
| 20260505074607 | 33 | 71 | 1.6 | 1.6 | 0.00 | 0.00 | 0.00 | 57 | 1007.4 |
| 20260505074104 | 33 | 36 | 0.0 | 4.8 | 0.00 | 0.00 | 0.00 | 57 | 1007.6 |
| 20260505073601 | 33 | 157 | 1.6 | 3.2 | 0.00 | 0.00 | 0.00 | 56 | 1007.6 |
| 20260505073100 | 33 | 64 | 0.0 | 1.6 | 0.00 | 0.00 | 0.00 | 57 | 1007.5 |
| 20260505072555 | 33 | 347 | 1.6 | 4.8 | 0.00 | 0.00 | 0.00 | 56 | 1007.7 |
| 20260505072052 | 35 | 88 | 1.6 | 6.4 | 0.00 | 0.00 | 0.00 | 53 | 1007.5 |
| 20260505071547 | 35 | 63 | 0.0 | 1.6 | 0.00 | 0.00 | 0.00 | 56 | 1007.5 |
| 20260505071046 | 34 | 34 | 1.6 | 3.2 | 0.00 | 0.00 | 0.00 | 55 | 1007.6 |
| 20260505070542 | 34 | 165 | 0.0 | 3.2 | 0.00 | 0.00 | 0.00 | 55 | 1007.8 |
| 20260505070038 | 34 | 274 | 0.0 | 3.2 | 0.00 | 0.00 | 0.00 | 57 | 1007.7 |
| 20260505065534 | 35 | 17 | 3.2 | 6.4 | 0.00 | 0.00 | 0.00 | 56 | 1007.4 |
| 20260505065031 | 34 | 316 | 0.0 | 3.2 | 0.00 | 0.00 | 0.00 | 57 | 1007.7 |
| 20260505064528 | 34 | 120 | 1.6 | 4.8 | 0.00 | 0.00 | 0.00 | 56 | 1007.8 |
| 20260505064027 | 34 | 288 | 0.0 | 1.6 | 0.00 | 0.00 | 0.00 | 58 | 1007.7 |
| 20260505063524 | 34 | 171 | 0.0 | 3.2 | 0.00 | 0.00 | 0.00 | 57 | 1007.9 |
| 20260505063019 | 33 | 166 | 1.6 | 3.2 | 0.00 | 0.00 | 0.00 | 58 | 1007.9 |
| 20260505062516 | 34 | 178 | 3.2 | 4.8 | 0.00 | 0.00 | 0.00 | 58 | 1007.9 |
| 20260505062014 | 33 | 197 | 3.2 | 4.8 | 0.00 | 0.00 | 0.00 | 59 | 1007.9 |
| 20260505061511 | 33 | 30 | 0.0 | 6.4 | 0.00 | 0.00 | 0.00 | 61 | 1008.1 |
| 20260505061009 | 33 | 50 | 0.0 | 1.6 | 0.00 | 0.00 | 0.00 | 60 | 1008.2 |
| 20260505060506 | 35 | 210 | 1.6 | 6.4 | 0.00 | 0.00 | 0.00 | 57 | 1008.1 |
| 20260505060002 | 35 | 180 | 1.6 | 4.8 | 0.00 | 0.00 | 0.00 | 57 | 1008.0 |
| 20260505055458 | 35 | 29 | 1.6 | 3.2 | 0.00 | 0.00 | 0.00 | 55 | 1008.2 |
| 20260505054955 | 34 | 203 | 0.0 | 0.0 | 0.00 | 0.00 | 0.00 | 56 | 1007.9 |
| 20260505054452 | 34 | 306 | 1.6 | 6.4 | 0.00 | 0.00 | 0.00 | 58 | 1008.1 |
| 20260505053950 | 34 | 139 | 1.6 | 3.2 | 0.00 | 0.00 | 0.00 | 56 | 1008.2 |
| 20260505053447 | 34 | 138 | 1.6 | 12.9 | 0.00 | 0.00 | 0.00 | 57 | 1008.3 |
| 20260505052943 | 35 | 15 | 3.2 | 4.8 | 0.00 | 0.00 | 0.00 | 54 | 1008.3 |
| 20260505052441 | 35 | 172 | 0.0 | 6.4 | 0.00 | 0.00 | 0.00 | 56 | 1008.3 |
| 20260505051938 | 34 | 147 | 0.0 | 1.6 | 0.00 | 0.00 | 0.00 | 58 | 1008.4 |
| 20260505051434 | 33 | 197 | 0.0 | 1.6 | 0.00 | 0.00 | 0.00 | 61 | 1008.4 |
| 20260505050933 | 33 | 29 | 1.6 | 1.6 | 0.00 | 0.00 | 0.00 | 59 | 1008.5 |
| 20260505050431 | 35 | 271 | 0.0 | 1.6 | 0.00 | 0.00 | 0.00 | 57 | 1008.5 |
| 20260505041358 | 35 | 359 | 0.0 | 3.2 | 0.00 | 0.00 | 0.00 | 54 | 1009.1 |
| 20260505040855 | 35 | 234 | 1.6 | 3.2 | 0.00 | 0.00 | 0.00 | 55 | 1009.0 |
| 20260505040353 | 35 | 158 | 1.6 | 3.2 | 0.00 | 0.00 | 0.00 | 53 | 1009.2 |
| 20260505035850 | 35 | 15 | 1.6 | 4.8 | 0.00 | 0.00 | 0.00 | 54 | 1009.4 |
| 20260505035345 | 35 | 219 | 0.0 | 4.8 | 0.00 | 0.00 | 0.00 | 54 | 1009.2 |
| 20260505034843 | 35 | 35 | 1.6 | 3.2 | 0.00 | 0.00 | 0.00 | 56 | 1009.1 |
| 20260505034339 | 35 | 169 | 1.6 | 1.6 | 0.00 | 0.00 | 0.00 | 54 | 1009.4 |
| 20260505033837 | 35 | 344 | 1.6 | 3.2 | 0.00 | 0.00 | 0.00 | 55 | 1009.4 |
| 20260505033333 | 35 | 1 | 1.6 | 3.2 | 0.00 | 0.00 | 0.00 | 54 | 1009.4 |
| 20260505032832 | 35 | 159 | 0.0 | 3.2 | 0.00 | 0.00 | 0.00 | 56 | 1009.5 |
| 20260505032328 | 35 | 181 | 4.8 | 6.4 | 0.00 | 0.00 | 0.00 | 55 | 1009.4 |
| 20260505031825 | 35 | 158 | 0.0 | 3.2 | 0.00 | 0.00 | 0.00 | 54 | 1009.7 |
| 20260505031321 | 35 | 199 | 0.0 | 1.6 | 0.00 | 0.00 | 0.00 | 57 | 1009.8 |
| 20260505030819 | 33 | 222 | 1.6 | 3.2 | 0.00 | 0.00 | 0.00 | 58 | 1009.6 |
| 20260505030315 | 35 | 186 | 1.6 | 3.2 | 0.00 | 0.00 | 0.00 | 55 | 1009.7 |
| 20260505025810 | 34 | 201 | 0.0 | 3.2 | 0.00 | 0.00 | 0.00 | 58 | 1009.9 |
| 20260505025308 | 33 | 242 | 0.0 | 3.2 | 0.00 | 0.00 | 0.00 | 60 | 1009.8 |
| 20260505024806 | 34 | 159 | 1.6 | 4.8 | 0.00 | 0.00 | 0.00 | 57 | 1010.0 |
| 20260505024303 | 34 | 237 | 3.2 | 4.8 | 0.00 | 0.00 | 0.00 | 58 | 1009.7 |
| 20260505023801 | 35 | 310 | 1.6 | 6.4 | 0.00 | 0.00 | 0.00 | 59 | 1009.7 |
| 20260505023257 | 35 | 158 | 0.0 | 1.6 | 0.00 | 0.00 | 0.00 | 57 | 1009.6 |
| 20260505022755 | 35 | 350 | 3.2 | 3.2 | 0.00 | 0.00 | 0.00 | 57 | 1009.8 |
| 20260505022252 | 34 | 36 | 0.0 | 4.8 | 0.00 | 0.00 | 0.00 | 59 | 1009.8 |
| 20260505021749 | 34 | 17 | 3.2 | 4.8 | 0.00 | 0.00 | 0.00 | 59 | 1009.9 |
| 20260505021246 | 35 | 139 | 1.6 | 3.2 | 0.00 | 0.00 | 0.00 | 58 | 1010.0 |
| 20260505020741 | 34 | 291 | 0.0 | 3.2 | 0.00 | 0.00 | 0.00 | 60 | 1009.9 |
| 20260505020237 | 33 | 278 | 0.0 | 3.2 | 0.00 | 0.00 | 0.00 | 62 | 1010.2 |
| 20260505015734 | 33 | 279 | 1.6 | 9.7 | 0.00 | 0.00 | 0.00 | 61 | 1009.8 |
| 20260505015231 | 33 | 54 | 3.2 | 4.8 | 0.00 | 0.00 | 0.00 | 61 | 1010.2 |
| 20260505014728 | 33 | 246 | 1.6 | 3.2 | 0.00 | 0.00 | 0.00 | 62 | 1010.2 |
| 20260505014225 | 33 | 213 | 1.6 | 4.8 | 0.00 | 0.00 | 0.00 | 63 | 1010.3 |
| 20260505013722 | 34 | 33 | 1.6 | 4.8 | 0.00 | 0.00 | 0.00 | 59 | 1010.3 |
| 20260505013219 | 33 | 147 | 1.6 | 3.2 | 0.00 | 0.00 | 0.00 | 63 | 1010.3 |
| 20260505012717 | 33 | 139 | 0.0 | 4.8 | 0.00 | 0.00 | 0.00 | 64 | 1010.3 |
| 20260505012214 | 33 | 50 | 0.0 | 3.2 | 0.00 | 0.00 | 0.00 | 64 | 1010.4 |
| 20260505011710 | 33 | 124 | 4.8 | 9.7 | 0.00 | 0.00 | 0.00 | 64 | 1010.2 |
| 20260505011207 | 32 | 284 | 1.6 | 3.2 | 0.00 | 0.00 | 0.00 | 67 | 1010.3 |
| 20260505010702 | 32 | 130 | 0.0 | 1.6 | 0.00 | 0.00 | 0.00 | 70 | 1010.4 |
| 20260505010200 | 30 | 171 | 0.0 | 1.6 | 0.00 | 0.00 | 0.00 | 79 | 1010.3 |
| 20260505005655 | 30 | 237 | 0.0 | 0.0 | 0.00 | 0.00 | 0.00 | 76 | 1010.4 |
| 20260505005153 | 31 | 237 | 0.0 | 0.0 | 0.00 | 0.00 | 0.00 | 76 | 1010.2 |
| 20260505004650 | 31 | 173 | 0.0 | 0.0 | 0.00 | 0.00 | 0.00 | 72 | 1010.4 |
| 20260505004146 | 31 | 319 | 0.0 | 1.6 | 0.00 | 0.00 | 0.00 | 71 | 1010.5 |
| 20260505003643 | 30 | 206 | 0.0 | 3.2 | 0.00 | 0.00 | 0.00 | 73 | 1010.3 |
| 20260505003141 | 30 | 217 | 0.0 | 3.2 | 0.00 | 0.00 | 0.00 | 76 | 1010.5 |
| 20260505002637 | 31 | 164 | 0.0 | 1.6 | 0.00 | 0.00 | 0.00 | 77 | 1010.5 |
| 20260505002135 | 30 | 21 | 0.0 | 3.2 | 0.00 | 0.00 | 0.00 | 75 | 1010.3 |
| 20260505001632 | 30 | 211 | 0.0 | 3.2 | 0.00 | 0.00 | 0.00 | 75 | 1010.2 |
| 20260505001130 | 30 | 257 | 0.0 | 1.6 | 0.00 | 0.00 | 0.00 | 76 | 1010.2 |
| 20260505000626 | 30 | 193 | 0.0 | 1.6 | 0.00 | 0.00 | 0.00 | 80 | 1010.2 |
| 20260505000125 | 29 | 359 | 0.0 | 1.6 | 0.00 | 0.00 | 0.00 | 82 | 1010.3 |
| 20260504235620 | 29 | 208 | 0.0 | 0.0 | 0.00 | 0.00 | 0.00 | 84 | 1010.0 |
| 20260504235117 | 28 | 252 | 0.0 | 0.0 | 0.00 | 0.00 | 0.00 | 85 | 1010.1 |
| 20260504234614 | 28 | 292 | 1.6 | 1.6 | 0.00 | 0.00 | 0.00 | 87 | 1010.2 |
| 20260504234111 | 27 | 193 | 0.0 | 0.0 | 0.00 | 0.00 | 0.00 | 90 | 1009.8 |
| 20260504233607 | 27 | 141 | 0.0 | 0.0 | 0.00 | 0.00 | 0.00 | 90 | 1010.1 |
| 20260504233103 | 27 | 152 | 0.0 | 0.0 | 0.00 | 0.00 | 0.00 | 91 | 1010.1 |
| 20260504232601 | 27 | 182 | 0.0 | 0.0 | 0.00 | 0.00 | 0.00 | 91 | 1009.8 |
| 20260504232058 | 27 | 182 | 0.0 | 0.0 | 0.00 | 0.00 | 0.00 | 91 | 1009.9 |
| 20260504231554 | 27 | 182 | 0.0 | 0.0 | 0.00 | 0.00 | 0.00 | 92 | 1009.7 |
| 20260504231051 | 26 | 264 | 0.0 | 0.0 | 0.00 | 0.00 | 0.00 | 92 | 1009.5 |
| 20260504230547 | 26 | 210 | 0.0 | 0.0 | 0.00 | 0.00 | 0.00 | 94 | 1009.7 |
| 20260504230046 | 26 | 210 | 0.0 | 0.0 | 0.00 | 0.00 | 0.00 | 94 | 1009.5 |
| 20260504225543 | 26 | 210 | 0.0 | 0.0 | 0.00 | 0.00 | 0.00 | 94 | 1009.5 |
| 20260504225040 | 26 | 210 | 0.0 | 0.0 | 0.00 | 0.00 | 0.00 | 94 | 1009.3 |
| 20260504224536 | 26 | 267 | 0.0 | 0.0 | 0.00 | 0.00 | 0.00 | 94 | 1009.6 |
| 20260504224034 | 26 | 141 | 0.0 | 0.0 | 0.00 | 0.00 | 0.00 | 94 | 1009.5 |
| 20260504223530 | 26 | 31 | 0.0 | 0.0 | 0.00 | 0.00 | 0.00 | 94 | 1009.3 |
| 20260504223026 | 25 | 31 | 0.0 | 0.0 | 0.00 | 0.00 | 0.00 | 94 | 1009.3 |
| 20260504222523 | 25 | 31 | 0.0 | 0.0 | 0.00 | 0.00 | 0.00 | 94 | 1009.3 |
| 20260504222021 | 25 | 31 | 0.0 | 0.0 | 0.00 | 0.00 | 0.00 | 94 | 1009.4 |
| 20260504221518 | 25 | 31 | 0.0 | 0.0 | 0.00 | 0.00 | 0.00 | 94 | 1009.3 |
| 20260504221015 | 25 | 31 | 0.0 | 0.0 | 0.00 | 0.00 | 0.00 | 94 | 1009.3 |
| 20260504220511 | 25 | 31 | 0.0 | 0.0 | 0.00 | 0.00 | 0.00 | 94 | 1009.4 |
| 20260504220008 | 25 | 31 | 0.0 | 0.0 | 0.00 | 0.00 | 0.00 | 94 | 1009.2 |
| 20260504215505 | 25 | 31 | 0.0 | 0.0 | 0.00 | 0.00 | 0.00 | 94 | 1009.0 |
| 20260504215002 | 25 | 31 | 0.0 | 0.0 | 0.00 | 0.00 | 0.00 | 94 | 1009.1 |
| 20260504214458 | 25 | 31 | 0.0 | 0.0 | 0.00 | 0.00 | 0.00 | 94 | 1008.9 |
| 20260504213954 | 25 | 31 | 0.0 | 0.0 | 0.00 | 0.00 | 0.00 | 94 | 1008.8 |
| 20260504213450 | 25 | 30 | 0.0 | 0.0 | 0.00 | 0.00 | 0.00 | 94 | 1008.7 |
| 20260504212948 | 25 | 30 | 0.0 | 0.0 | 0.00 | 0.00 | 0.00 | 94 | 1008.7 |
| 20260504212444 | 25 | 31 | 0.0 | 0.0 | 0.00 | 0.00 | 0.00 | 94 | 1008.7 |
| 20260504211942 | 25 | 31 | 0.0 | 0.0 | 0.00 | 0.00 | 0.00 | 94 | 1008.3 |
| 20260504211438 | 25 | 31 | 0.0 | 0.0 | 0.00 | 0.00 | 0.00 | 94 | 1008.6 |
| 20260504210935 | 25 | 31 | 0.0 | 0.0 | 0.00 | 0.00 | 0.00 | 94 | 1008.6 |
| 20260504210432 | 25 | 31 | 0.0 | 0.0 | 0.00 | 0.00 | 0.00 | 94 | 1008.6 |
| 20260504205929 | 24 | 31 | 0.0 | 0.0 | 0.00 | 0.00 | 0.00 | 94 | 1008.3 |
| 20260504205427 | 24 | 31 | 0.0 | 0.0 | 0.00 | 0.00 | 0.00 | 94 | 1008.6 |
| 20260504204925 | 24 | 31 | 0.0 | 0.0 | 0.00 | 0.00 | 0.00 | 94 | 1008.6 |
| 20260504204423 | 25 | 31 | 0.0 | 0.0 | 0.00 | 0.00 | 0.00 | 94 | 1008.5 |
| 20260504203922 | 24 | 31 | 0.0 | 0.0 | 0.00 | 0.00 | 0.00 | 94 | 1008.4 |
| 20260504203419 | 24 | 31 | 0.0 | 0.0 | 0.00 | 0.00 | 0.00 | 94 | 1008.4 |
| 20260504202915 | 24 | 31 | 0.0 | 0.0 | 0.00 | 0.00 | 0.00 | 94 | 1008.2 |
| 20260504202412 | 24 | 31 | 0.0 | 0.0 | 0.00 | 0.00 | 0.00 | 94 | 1008.5 |
| 20260504201908 | 24 | 31 | 0.0 | 0.0 | 0.00 | 0.00 | 0.00 | 94 | 1008.3 |
| 20260504201406 | 24 | 31 | 0.0 | 0.0 | 0.00 | 0.00 | 0.00 | 94 | 1008.5 |
| 20260504200903 | 24 | 31 | 0.0 | 0.0 | 0.00 | 0.00 | 0.00 | 94 | 1008.3 |
| 20260504200359 | 24 | 31 | 0.0 | 0.0 | 0.00 | 0.00 | 0.00 | 94 | 1008.3 |
| 20260504195856 | 24 | 31 | 0.0 | 0.0 | 0.00 | 0.00 | 0.00 | 94 | 1008.2 |
| 20260504195352 | 25 | 31 | 0.0 | 0.0 | 0.00 | 0.00 | 0.00 | 94 | 1008.3 |
| 20260504194848 | 25 | 31 | 0.0 | 0.0 | 0.00 | 0.00 | 0.00 | 94 | 1008.3 |
| 20260504194344 | 24 | 31 | 0.0 | 0.0 | 0.00 | 0.00 | 0.00 | 94 | 1008.1 |
| 20260504193841 | 24 | 31 | 0.0 | 0.0 | 0.00 | 0.00 | 0.00 | 94 | 1008.4 |
| 20260504193338 | 24 | 31 | 0.0 | 0.0 | 0.00 | 0.00 | 0.00 | 94 | 1008.4 |
| 20260504192837 | 24 | 31 | 0.0 | 0.0 | 0.00 | 0.00 | 0.00 | 94 | 1008.6 |
| 20260504192334 | 24 | 31 | 0.0 | 0.0 | 0.00 | 0.00 | 0.00 | 94 | 1008.6 |
| 20260504191832 | 24 | 31 | 0.0 | 0.0 | 0.00 | 0.00 | 0.00 | 94 | 1008.7 |
| 20260504191330 | 24 | 31 | 0.0 | 0.0 | 0.00 | 0.00 | 0.00 | 94 | 1008.6 |
| 20260504190825 | 25 | 31 | 0.0 | 0.0 | 0.00 | 0.00 | 0.00 | 94 | 1008.6 |
| 20260504190321 | 25 | 31 | 0.0 | 0.0 | 0.00 | 0.00 | 0.00 | 94 | 1008.9 |
| 20260504185818 | 24 | 31 | 0.0 | 0.0 | 0.00 | 0.00 | 0.00 | 94 | 1009.1 |
| 20260504185315 | 25 | 31 | 0.0 | 0.0 | 0.00 | 0.00 | 0.00 | 94 | 1008.8 |
| 20260504184811 | 25 | 31 | 0.0 | 0.0 | 0.00 | 0.00 | 0.00 | 94 | 1008.9 |
| 20260504184307 | 25 | 31 | 0.0 | 0.0 | 0.00 | 0.00 | 0.00 | 94 | 1008.9 |
| 20260504183803 | 25 | 31 | 0.0 | 0.0 | 0.00 | 0.00 | 0.00 | 94 | 1009.0 |
| 20260504183300 | 25 | 31 | 0.0 | 0.0 | 0.00 | 0.00 | 0.00 | 94 | 1008.7 |
| 20260504182758 | 25 | 31 | 0.0 | 0.0 | 0.00 | 0.00 | 0.00 | 94 | 1008.9 |
| 20260504182255 | 25 | 31 | 0.0 | 0.0 | 0.00 | 0.00 | 0.00 | 94 | 1009.2 |
| 20260504181753 | 25 | 31 | 0.0 | 0.0 | 0.00 | 0.00 | 0.00 | 94 | 1009.1 |
| 20260504181250 | 24 | 31 | 0.0 | 0.0 | 0.00 | 0.00 | 0.00 | 94 | 1008.9 |
| 20260504180749 | 24 | 31 | 0.0 | 0.0 | 0.00 | 0.00 | 0.00 | 94 | 1008.9 |
| 20260504180247 | 25 | 31 | 0.0 | 0.0 | 0.00 | 0.00 | 0.00 | 94 | 1009.1 |
| 20260504175744 | 25 | 31 | 0.0 | 0.0 | 0.00 | 0.00 | 0.00 | 94 | 1009.1 |
| 20260504175241 | 25 | 31 | 0.0 | 0.0 | 0.00 | 0.00 | 0.00 | 94 | 1009.4 |
| 20260504174739 | 25 | 31 | 0.0 | 0.0 | 0.00 | 0.00 | 0.00 | 94 | 1009.4 |
| 20260504174237 | 25 | 31 | 0.0 | 0.0 | 0.00 | 0.00 | 0.00 | 94 | 1009.6 |
| 20260504173733 | 25 | 31 | 0.0 | 0.0 | 0.00 | 0.00 | 0.00 | 94 | 1009.7 |
| 20260504173230 | 25 | 31 | 0.0 | 0.0 | 0.00 | 0.00 | 0.00 | 94 | 1009.7 |
| 20260504172727 | 25 | 31 | 0.0 | 0.0 | 0.00 | 0.00 | 0.00 | 94 | 1009.8 |
| 20260504172223 | 25 | 31 | 0.0 | 0.0 | 0.00 | 0.00 | 0.00 | 94 | 1009.6 |
| 20260504171720 | 25 | 31 | 0.0 | 0.0 | 0.00 | 0.00 | 0.00 | 94 | 1009.7 |
| 20260504171217 | 25 | 31 | 0.0 | 0.0 | 0.00 | 0.00 | 0.00 | 94 | 1009.7 |
| 20260504170713 | 25 | 31 | 0.0 | 0.0 | 0.00 | 0.00 | 0.00 | 94 | 1010.1 |
| 20260504170211 | 25 | 31 | 0.0 | 0.0 | 0.00 | 0.00 | 0.00 | 94 | 1009.8 |
| 20260504160129 | 25 | 31 | 0.0 | 0.0 | 0.00 | 0.00 | 0.00 | 93 | 1010.5 |
| 20260504151056 | 25 | 31 | 0.0 | 0.0 | 0.00 | 0.03 | 0.03 | 91 | 1011.0 |
| 20260504150554 | 25 | 31 | 0.0 | 0.0 | 0.00 | 0.03 | 0.03 | 91 | 1010.7 |
| 20260504141020 | 25 | 18 | 0.0 | 0.0 | 0.00 | 0.03 | 0.03 | 93 | 1010.8 |
| 20260504140516 | 25 | 17 | 0.0 | 0.0 | 0.00 | 0.03 | 0.03 | 93 | 1011.0 |
| 20260504130441 | 25 | 170 | 0.0 | 0.0 | 0.00 | 0.03 | 0.03 | 92 | 1010.2 |
| 20260504110328 | 26 | 170 | 0.0 | 0.0 | 0.00 | 0.03 | 0.03 | 90 | 1009.5 |
| 20260504100245 | 26 | 174 | 0.0 | 0.0 | 0.00 | 0.03 | 0.03 | 86 | 1008.9 |